Location: Palomar Mountain Lodge
(33.3110°N, 116.8495°W)
Time: 14:38:13
(UTC-07:00)

Meteor 2-5 Rocket - Pass Details

Date: 14 June 2018
Orbit: 833 x 912 km, 81.2° (Epoch: 20 August)

Event Time Altitude Azimuth Distance (km) Brightness Sun altitude
Exits shadow 22:09:11 31° 187° (S) 1,533 4.7 -21.9°
Maximum altitude 22:12:12 89° 272° (W) 915 3.8 -22.3°
Drops below altitude 10° 22:18:10 10° 8° (N) 2,601 6.8 -23.1°
Sets 22:20:38 0° 8° (N) 3,543 7.6 -23.4°
